| time (UTC) | temp F | wind direction | speed knots | gust knots | rain 1hr in | rain 24hr in | rain mn in | humidity % | barometer mb |
| 20260502180353 | 52 | 285 | 1.7 | 5.2 | 0.00 | 0.06 | 0.06 | 85 | 1008.9 |
| 20260502170307 | 52 | 204 | 1.7 | 6.1 | 0.00 | 0.06 | 0.06 | 85 | 1009.1 |
| 20260502164254 | 51 | 114 | 1.7 | 4.3 | 0.00 | 0.06 | 0.06 | 86 | 1009.6 |
| 20260502163750 | 51 | 215 | 1.7 | 8.7 | 0.00 | 0.06 | 0.06 | 86 | 1009.4 |
| 20260502163247 | 51 | 207 | 4.3 | 6.1 | 0.00 | 0.06 | 0.06 | 86 | 1009.4 |
| 20260502162744 | 51 | 118 | 6.1 | 6.1 | 0.00 | 0.06 | 0.06 | 86 | 1009.6 |
| 20260502162241 | 51 | 105 | 1.7 | 5.2 | 0.00 | 0.06 | 0.06 | 86 | 1009.4 |
| 20260502161738 | 51 | 88 | 3.5 | 7.0 | 0.00 | 0.06 | 0.06 | 85 | 1009.4 |
| 20260502161234 | 51 | 112 | 4.3 | 5.2 | 0.00 | 0.06 | 0.06 | 86 | 1009.6 |
| 20260502160732 | 51 | 124 | 4.3 | 7.8 | 0.00 | 0.06 | 0.06 | 86 | 1009.6 |
| 20260502160231 | 51 | 106 | 3.5 | 4.3 | 0.00 | 0.06 | 0.06 | 87 | 1009.4 |
| 20260502152155 | 51 | 114 | 1.7 | 4.3 | 0.00 | 0.06 | 0.06 | 88 | 1010.1 |
| 20260502151652 | 50 | 131 | 0.0 | 4.3 | 0.00 | 0.06 | 0.06 | 88 | 1010.3 |
| 20260502151150 | 51 | 106 | 4.3 | 5.2 | 0.00 | 0.06 | 0.06 | 88 | 1010.3 |
| 20260502150647 | 51 | 109 | 3.5 | 7.0 | 0.00 | 0.06 | 0.06 | 88 | 1010.2 |
| 20260502150143 | 51 | 211 | 2.6 | 5.2 | 0.00 | 0.06 | 0.06 | 86 | 1010.3 |
| 20260502140107 | 51 | 136 | 3.5 | 4.3 | 0.00 | 0.06 | 0.06 | 88 | 1010.2 |
| 20260502130532 | 48 | 170 | 1.7 | 2.6 | 0.00 | 0.06 | 0.06 | 97 | 1009.9 |
| 20260502123515 | 47 | 50 | 1.7 | 4.3 | 0.00 | 0.06 | 0.06 | 98 | 1009.8 |
| 20260502123011 | 47 | 83 | 1.7 | 2.6 | 0.00 | 0.06 | 0.06 | 98 | 1010.3 |
| 20260502122508 | 46 | 67 | 2.6 | 7.0 | 0.00 | 0.06 | 0.06 | 98 | 1010.3 |
| 20260502122006 | 46 | 91 | 1.7 | 7.0 | 0.02 | 0.06 | 0.06 | 98 | 1010.5 |
| 20260502121503 | 46 | 74 | 1.7 | 3.5 | 0.07 | 0.06 | 0.06 | 98 | 1010.7 |
| 20260502121000 | 46 | 86 | 2.6 | 2.6 | 0.12 | 0.05 | 0.05 | 98 | 1010.6 |
| 20260502120456 | 46 | 88 | 0.9 | 2.6 | 0.12 | 0.04 | 0.04 | 98 | 1010.8 |
| 20260502115451 | 46 | 182 | 1.7 | 3.5 | 0.02 | 0.02 | 0.02 | 98 | 1011.1 |
| 20260502114947 | 46 | 119 | 1.7 | 2.6 | 0.05 | 0.02 | 0.02 | 98 | 1010.8 |
| 20260502114444 | 46 | 48 | 0.0 | 1.7 | 0.02 | 0.02 | 0.02 | 98 | 1010.9 |
| 20260502113941 | 46 | 196 | 0.0 | 2.6 | 0.02 | 0.02 | 0.02 | 98 | 1010.8 |
| 20260502113438 | 46 | 38 | 0.0 | 3.5 | 0.02 | 0.02 | 0.02 | 98 | 1010.9 |
| 20260502112937 | 46 | 116 | 0.0 | 2.6 | 0.00 | 0.01 | 0.01 | 98 | 1010.7 |
| 20260502112434 | 46 | 49 | 0.9 | 2.6 | 0.00 | 0.01 | 0.01 | 97 | 1010.8 |
| 20260502111931 | 46 | 294 | 0.0 | 6.1 | 0.00 | 0.01 | 0.01 | 97 | 1010.6 |
| 20260502111428 | 46 | 301 | 1.7 | 2.6 | 0.00 | 0.01 | 0.01 | 97 | 1011.1 |
| 20260502110926 | 46 | 309 | 0.9 | 2.6 | 0.00 | 0.01 | 0.01 | 97 | 1010.7 |
| 20260502110424 | 46 | 309 | 0.0 | 7.8 | 0.00 | 0.01 | 0.01 | 98 | 1010.9 |
| 20260502105920 | 46 | 247 | 0.9 | 1.7 | 0.00 | 0.01 | 0.01 | 97 | 1010.6 |
| 20260502105417 | 46 | 189 | 1.7 | 2.6 | 0.00 | 0.01 | 0.01 | 97 | 1010.5 |
| 20260502104916 | 46 | 83 | 0.9 | 1.7 | 0.00 | 0.01 | 0.01 | 97 | 1010.4 |
| 20260502104412 | 46 | 112 | 1.7 | 3.5 | 0.00 | 0.01 | 0.01 | 97 | 1010.1 |
| 20260502103910 | 46 | 218 | 1.7 | 2.6 | 0.00 | 0.01 | 0.01 | 97 | 1010.0 |
| 20260502103408 | 45 | 170 | 1.7 | 1.7 | 0.00 | 0.01 | 0.01 | 97 | 1009.8 |
| 20260502102904 | 45 | 64 | 0.9 | 2.6 | 0.00 | 0.01 | 0.01 | 96 | 1009.7 |
| 20260502102401 | 45 | 127 | 2.6 | 2.6 | 0.00 | 0.01 | 0.01 | 96 | 1010.0 |
| 20260502101858 | 45 | 128 | 0.0 | 1.7 | 0.02 | 0.01 | 0.01 | 96 | 1009.9 |
| 20260502101356 | 45 | 24 | 0.9 | 2.6 | 0.00 | 0.01 | 0.01 | 96 | 1010.0 |
| 20260502100854 | 45 | 53 | 1.7 | 1.7 | 0.00 | 0.01 | 0.01 | 96 | 1009.8 |
| 20260502100353 | 45 | 135 | 0.0 | 1.7 | 0.00 | 0.01 | 0.01 | 96 | 1010.1 |
| 20260502091327 | 45 | 297 | 0.0 | 1.7 | 0.00 | 0.00 | 0.00 | 94 | 1009.8 |
| 20260502090825 | 45 | 121 | 0.0 | 2.6 | 0.00 | 0.00 | 0.00 | 94 | 1009.6 |
| 20260502090321 | 45 | 133 | 1.7 | 2.6 | 0.00 | 0.00 | 0.00 | 94 | 1009.6 |
| 20260502071216 | 47 | 63 | 1.7 | 2.6 | 0.00 | 0.00 | 0.00 | 85 | 1009.8 |
| 20260502070715 | 47 | 48 | 0.0 | 2.6 | 0.00 | 0.00 | 0.00 | 84 | 1010.0 |
| 20260502070212 | 47 | 143 | 1.7 | 3.5 | 0.00 | 0.00 | 0.00 | 84 | 1010.0 |
| 20260502065710 | 47 | 182 | 0.9 | 2.6 | 0.00 | 0.00 | 0.00 | 84 | 1010.0 |
| 20260502065208 | 47 | 156 | 1.7 | 1.7 | 0.00 | 0.00 | 0.00 | 84 | 1009.7 |
| 20260502064706 | 47 | 43 | 0.9 | 2.6 | 0.00 | 0.00 | 0.00 | 83 | 1009.8 |
| 20260502064203 | 47 | 208 | 0.9 | 3.5 | 0.00 | 0.00 | 0.00 | 83 | 1010.0 |
| 20260502063701 | 47 | 86 | 1.7 | 2.6 | 0.00 | 0.00 | 0.00 | 83 | 1009.7 |
| 20260502063159 | 47 | 177 | 1.7 | 4.3 | 0.00 | 0.00 | 0.00 | 82 | 1009.9 |
| 20260502062655 | 47 | 188 | 0.9 | 3.5 | 0.00 | 0.00 | 0.00 | 82 | 1009.9 |
| 20260502062153 | 48 | 150 | 3.5 | 5.2 | 0.00 | 0.00 | 0.00 | 82 | 1010.1 |
| 20260502061651 | 48 | 209 | 3.5 | 4.3 | 0.00 | 0.00 | 0.00 | 82 | 1010.1 |
| 20260502061148 | 48 | 194 | 1.7 | 2.6 | 0.00 | 0.00 | 0.00 | 81 | 1010.0 |
| 20260502060648 | 48 | 223 | 2.6 | 3.5 | 0.00 | 0.00 | 0.00 | 81 | 1009.9 |
| 20260502060145 | 48 | 162 | 2.6 | 4.3 | 0.00 | 0.00 | 0.00 | 80 | 1010.1 |
| 20260502055643 | 48 | 219 | 0.9 | 2.6 | 0.00 | 0.00 | 0.00 | 80 | 1010.0 |
| 20260502055141 | 48 | 165 | 4.3 | 6.1 | 0.00 | 0.00 | 0.00 | 80 | 1009.9 |
| 20260502054640 | 48 | 149 | 0.0 | 2.6 | 0.00 | 0.00 | 0.00 | 79 | 1010.1 |
| 20260502054137 | 48 | 126 | 0.0 | 3.5 | 0.00 | 0.00 | 0.00 | 79 | 1010.0 |
| 20260502053634 | 48 | 171 | 1.7 | 2.6 | 0.00 | 0.00 | 0.00 | 79 | 1010.2 |
| 20260502053131 | 48 | 199 | 1.7 | 3.5 | 0.00 | 0.00 | 0.00 | 79 | 1010.1 |
| 20260502052629 | 48 | 196 | 1.7 | 4.3 | 0.00 | 0.00 | 0.00 | 79 | 1010.1 |
| 20260502052127 | 48 | 177 | 1.7 | 3.5 | 0.00 | 0.00 | 0.00 | 78 | 1010.2 |
| 20260502051625 | 48 | 142 | 1.7 | 4.3 | 0.00 | 0.00 | 0.00 | 78 | 1010.2 |
| 20260502051123 | 48 | 169 | 2.6 | 4.3 | 0.00 | 0.00 | 0.00 | 78 | 1010.3 |
| 20260502050619 | 49 | 183 | 3.5 | 6.1 | 0.00 | 0.00 | 0.00 | 78 | 1010.3 |
| 20260502050116 | 49 | 151 | 2.6 | 3.5 | 0.00 | 0.00 | 0.00 | 77 | 1010.3 |
| 20260502045612 | 49 | 160 | 1.7 | 4.3 | 0.00 | 0.00 | 0.00 | 77 | 1010.3 |
| 20260502045110 | 49 | 186 | 1.7 | 4.3 | 0.00 | 0.00 | 0.00 | 77 | 1010.2 |
| 20260502044606 | 49 | 199 | 1.7 | 4.3 | 0.00 | 0.00 | 0.00 | 76 | 1010.4 |
| 20260502044103 | 49 | 179 | 1.7 | 5.2 | 0.00 | 0.00 | 0.00 | 76 | 1010.3 |
| 20260502043600 | 49 | 173 | 1.7 | 5.2 | 0.00 | 0.00 | 0.00 | 76 | 1010.2 |
| 20260502043057 | 49 | 178 | 2.6 | 3.5 | 0.00 | 0.00 | 0.00 | 75 | 1010.1 |
| 20260502042551 | 49 | 168 | 0.0 | 5.2 | 0.00 | 0.00 | 0.00 | 75 | 1010.4 |
| 20260502042049 | 49 | 192 | 1.7 | 4.3 | 0.00 | 0.00 | 0.00 | 74 | 1010.3 |
| 20260502041546 | 49 | 204 | 0.9 | 3.5 | 0.00 | 0.00 | 0.00 | 74 | 1010.3 |
| 20260502041043 | 49 | 235 | 2.6 | 4.3 | 0.00 | 0.00 | 0.00 | 74 | 1010.1 |
| 20260502040539 | 50 | 168 | 1.7 | 2.6 | 0.00 | 0.00 | 0.00 | 74 | 1010.2 |
| 20260502040037 | 50 | 214 | 1.7 | 4.3 | 0.00 | 0.00 | 0.00 | 73 | 1010.1 |
| 20260502035532 | 50 | 227 | 2.6 | 9.6 | 0.00 | 0.00 | 0.00 | 73 | 1010.2 |
| 20260502035030 | 50 | 219 | 0.9 | 4.3 | 0.00 | 0.00 | 0.00 | 73 | 1010.4 |
| 20260502034528 | 50 | 164 | 1.7 | 2.6 | 0.00 | 0.00 | 0.00 | 73 | 1010.4 |
| 20260502034026 | 50 | 223 | 0.9 | 2.6 | 0.00 | 0.00 | 0.00 | 73 | 1010.1 |
| 20260502033524 | 50 | 195 | 0.0 | 4.3 | 0.00 | 0.00 | 0.00 | 73 | 1010.3 |
| 20260502033021 | 50 | 194 | 2.6 | 6.1 | 0.00 | 0.00 | 0.00 | 73 | 1010.4 |
| 20260502032517 | 50 | 184 | 2.6 | 2.6 | 0.00 | 0.00 | 0.00 | 73 | 1010.4 |
| 20260502032014 | 50 | 208 | 2.6 | 2.6 | 0.00 | 0.00 | 0.00 | 72 | 1010.5 |
| 20260502031512 | 50 | 213 | 2.6 | 5.2 | 0.00 | 0.00 | 0.00 | 72 | 1010.3 |
| 20260502031010 | 50 | 219 | 1.7 | 4.3 | 0.00 | 0.00 | 0.00 | 72 | 1010.4 |
| 20260502030508 | 50 | 177 | 3.5 | 5.2 | 0.00 | 0.00 | 0.00 | 72 | 1010.4 |
| 20260502030006 | 50 | 210 | 0.9 | 5.2 | 0.00 | 0.00 | 0.00 | 71 | 1010.6 |
| 20260502025503 | 50 | 185 | 2.6 | 4.3 | 0.00 | 0.00 | 0.00 | 71 | 1010.6 |
| 20260502025001 | 50 | 171 | 1.7 | 3.5 | 0.00 | 0.00 | 0.00 | 71 | 1010.3 |
| 20260502024458 | 50 | 162 | 1.7 | 4.3 | 0.00 | 0.00 | 0.00 | 70 | 1010.5 |
| 20260502023956 | 50 | 151 | 1.7 | 3.5 | 0.00 | 0.00 | 0.00 | 70 | 1010.7 |
| 20260502023453 | 51 | 206 | 2.6 | 4.3 | 0.00 | 0.00 | 0.00 | 69 | 1010.5 |
| 20260502022951 | 51 | 155 | 1.7 | 5.2 | 0.00 | 0.00 | 0.00 | 69 | 1010.5 |
| 20260502022447 | 51 | 156 | 2.6 | 4.3 | 0.00 | 0.00 | 0.00 | 69 | 1010.3 |
| 20260502021944 | 51 | 163 | 3.5 | 4.3 | 0.00 | 0.00 | 0.00 | 68 | 1010.4 |
| 20260502021442 | 51 | 186 | 2.6 | 4.3 | 0.00 | 0.00 | 0.00 | 68 | 1010.2 |
| 20260502020939 | 51 | 207 | 1.7 | 7.8 | 0.00 | 0.00 | 0.00 | 67 | 1010.4 |
| 20260502020437 | 51 | 225 | 4.3 | 7.8 | 0.00 | 0.00 | 0.00 | 67 | 1010.4 |
| 20260502015933 | 51 | 170 | 1.7 | 5.2 | 0.00 | 0.00 | 0.00 | 67 | 1010.6 |
| 20260502015431 | 51 | 131 | 2.6 | 4.3 | 0.00 | 0.00 | 0.00 | 66 | 1010.4 |
| 20260502014927 | 52 | 176 | 3.5 | 4.3 | 0.00 | 0.00 | 0.00 | 64 | 1010.4 |
| 20260502014424 | 52 | 169 | 3.5 | 6.1 | 0.00 | 0.00 | 0.00 | 63 | 1010.4 |
| 20260502013921 | 52 | 151 | 3.5 | 6.1 | 0.00 | 0.00 | 0.00 | 63 | 1010.3 |
| 20260502013416 | 52 | 167 | 0.9 | 4.3 | 0.00 | 0.00 | 0.00 | 62 | 1010.3 |
| 20260502012913 | 52 | 188 | 2.6 | 4.3 | 0.00 | 0.00 | 0.00 | 60 | 1010.2 |
| 20260502012411 | 52 | 137 | 1.7 | 7.0 | 0.00 | 0.00 | 0.00 | 59 | 1010.3 |
| 20260502011908 | 52 | 190 | 2.6 | 2.6 | 0.00 | 0.00 | 0.00 | 58 | 1010.4 |
| 20260502011404 | 52 | 152 | 1.7 | 3.5 | 0.00 | 0.00 | 0.00 | 56 | 1010.3 |
| 20260502010901 | 52 | 161 | 1.7 | 3.5 | 0.00 | 0.00 | 0.00 | 55 | 1010.0 |
| 20260502010358 | 53 | 162 | 3.5 | 6.1 | 0.00 | 0.00 | 0.00 | 54 | 1010.2 |
| 20260502005854 | 53 | 190 | 1.7 | 5.2 | 0.00 | 0.00 | 0.00 | 52 | 1009.9 |
| 20260502005352 | 53 | 171 | 2.6 | 6.1 | 0.00 | 0.00 | 0.00 | 51 | 1009.8 |
| 20260502004850 | 53 | 222 | 7.8 | 11.3 | 0.00 | 0.00 | 0.00 | 51 | 1009.9 |
| 20260502004345 | 53 | 192 | 5.2 | 8.7 | 0.00 | 0.00 | 0.00 | 50 | 1009.5 |
| 20260502003843 | 53 | 216 | 2.6 | 4.3 | 0.00 | 0.00 | 0.00 | 50 | 1009.7 |
| 20260502003340 | 53 | 149 | 0.0 | 2.6 | 0.00 | 0.00 | 0.00 | 51 | 1009.7 |
| 20260502002836 | 53 | 154 | 0.0 | 2.6 | 0.00 | 0.00 | 0.00 | 51 | 1009.6 |
| 20260502002334 | 54 | 167 | 0.0 | 2.6 | 0.00 | 0.00 | 0.00 | 50 | 1009.6 |
| 20260502001831 | 53 | 210 | 1.7 | 2.6 | 0.00 | 0.00 | 0.00 | 51 | 1009.3 |
| 20260502001329 | 54 | 175 | 2.6 | 2.6 | 0.00 | 0.00 | 0.00 | 49 | 1009.2 |
| 20260502000826 | 53 | 233 | 1.7 | 5.2 | 0.00 | 0.00 | 0.00 | 51 | 1009.4 |
| 20260502000325 | 53 | 192 | 1.7 | 3.5 | 0.00 | 0.00 | 0.00 | 50 | 1009.2 |
| 20260501235820 | 54 | 78 | 0.9 | 1.7 | 0.00 | 0.00 | 0.00 | 48 | 1008.9 |
| 20260501235316 | 54 | 4 | 0.0 | 1.7 | 0.00 | 0.00 | 0.00 | 46 | 1008.8 |
| 20260501234811 | 55 | 23 | 1.7 | 2.6 | 0.00 | 0.00 | 0.00 | 46 | 1008.8 |
| 20260501234309 | 55 | 34 | 1.7 | 2.6 | 0.00 | 0.00 | 0.00 | 46 | 1008.7 |
| 20260501233807 | 55 | 31 | 0.0 | 1.7 | 0.00 | 0.00 | 0.00 | 46 | 1008.6 |
| 20260501233304 | 55 | 17 | 1.7 | 1.7 | 0.00 | 0.00 | 0.00 | 46 | 1008.7 |
| 20260501232759 | 56 | 338 | 0.0 | 1.7 | 0.00 | 0.00 | 0.00 | 48 | 1008.8 |
| 20260501232257 | 57 | 306 | 0.0 | 0.9 | 0.00 | 0.00 | 0.00 | 45 | 1008.6 |
| 20260501231754 | 57 | 269 | 0.0 | 5.2 | 0.00 | 0.00 | 0.00 | 43 | 1008.3 |
| 20260501231252 | 57 | 357 | 0.9 | 2.6 | 0.00 | 0.00 | 0.00 | 45 | 1008.4 |
| 20260501230750 | 58 | 296 | 0.0 | 1.7 | 0.00 | 0.00 | 0.00 | 44 | 1008.4 |
| 20260501230249 | 58 | 258 | 2.6 | 7.0 | 0.00 | 0.00 | 0.00 | 41 | 1008.6 |
| 20260501225746 | 58 | 278 | 1.7 | 1.7 | 0.00 | 0.00 | 0.00 | 45 | 1008.6 |
| 20260501225243 | 59 | 256 | 1.7 | 4.3 | 0.00 | 0.00 | 0.00 | 40 | 1008.3 |
| 20260501224739 | 59 | 271 | 0.0 | 4.3 | 0.00 | 0.00 | 0.00 | 40 | 1008.1 |
| 20260501224237 | 59 | 219 | 4.3 | 6.1 | 0.00 | 0.00 | 0.00 | 40 | 1008.2 |
| 20260501223733 | 59 | 203 | 2.6 | 6.1 | 0.00 | 0.00 | 0.00 | 42 | 1008.2 |
| 20260501223229 | 59 | 66 | 0.9 | 3.5 | 0.00 | 0.00 | 0.00 | 40 | 1008.1 |
| 20260501222725 | 59 | 10 | 1.7 | 2.6 | 0.00 | 0.00 | 0.00 | 42 | 1008.1 |
| 20260501222223 | 59 | 5 | 1.7 | 2.6 | 0.00 | 0.00 | 0.00 | 43 | 1008.0 |
| 20260501221720 | 59 | 2 | 1.7 | 2.6 | 0.00 | 0.00 | 0.00 | 43 | 1008.1 |
| 20260501221217 | 59 | 210 | 3.5 | 8.7 | 0.00 | 0.00 | 0.00 | 39 | 1008.1 |
| 20260501220714 | 59 | 240 | 5.2 | 6.1 | 0.00 | 0.00 | 0.00 | 40 | 1008.3 |
| 20260501220212 | 60 | 204 | 3.5 | 4.3 | 0.00 | 0.00 | 0.00 | 39 | 1008.2 |
| 20260501215709 | 60 | 212 | 0.0 | 2.6 | 0.00 | 0.00 | 0.00 | 40 | 1008.3 |
| 20260501215204 | 60 | 281 | 2.6 | 7.0 | 0.00 | 0.00 | 0.00 | 39 | 1008.4 |
| 20260501214659 | 60 | 226 | 3.5 | 6.1 | 0.00 | 0.00 | 0.00 | 38 | 1008.2 |
| 20260501214155 | 60 | 333 | 2.6 | 4.3 | 0.00 | 0.00 | 0.00 | 37 | 1008.2 |
| 20260501213652 | 60 | 211 | 2.6 | 4.3 | 0.00 | 0.00 | 0.00 | 38 | 1008.2 |
| 20260501213147 | 61 | 207 | 4.3 | 4.3 | 0.00 | 0.00 | 0.00 | 37 | 1008.2 |
| 20260501212644 | 61 | 9 | 1.7 | 4.3 | 0.00 | 0.00 | 0.00 | 36 | 1008.2 |
| 20260501212141 | 62 | 219 | 6.1 | 7.8 | 0.00 | 0.00 | 0.00 | 35 | 1008.1 |
| 20260501211638 | 62 | 29 | 1.7 | 3.5 | 0.00 | 0.00 | 0.00 | 36 | 1008.1 |
| 20260501211135 | 61 | 248 | 1.7 | 8.7 | 0.00 | 0.00 | 0.00 | 36 | 1008.0 |
| 20260501210626 | 62 | 315 | 3.5 | 4.3 | 0.00 | 0.00 | 0.00 | 39 | 1008.1 |
| 20260501210123 | 61 | 217 | 4.3 | 8.7 | 0.00 | 0.00 | 0.00 | 35 | 1008.0 |
| 20260501205619 | 63 | 295 | 3.5 | 8.7 | 0.00 | 0.00 | 0.00 | 36 | 1008.0 |
| 20260501205117 | 64 | 313 | 3.5 | 4.3 | 0.00 | 0.00 | 0.00 | 35 | 1008.1 |
| 20260501204613 | 63 | 241 | 1.7 | 5.2 | 0.00 | 0.00 | 0.00 | 37 | 1007.9 |
| 20260501204109 | 62 | 267 | 1.7 | 6.1 | 0.00 | 0.00 | 0.00 | 37 | 1008.0 |
| 20260501203606 | 63 | 300 | 3.5 | 4.3 | 0.00 | 0.00 | 0.00 | 37 | 1008.0 |
| 20260501203104 | 62 | 300 | 1.7 | 7.8 | 0.00 | 0.00 | 0.00 | 36 | 1008.1 |
| 20260501202601 | 62 | 308 | 1.7 | 3.5 | 0.00 | 0.00 | 0.00 | 35 | 1008.2 |
| 20260501202057 | 61 | 237 | 2.6 | 13.9 | 0.00 | 0.00 | 0.00 | 36 | 1007.8 |
| 20260501201554 | 63 | 301 | 1.7 | 8.7 | 0.00 | 0.00 | 0.00 | 34 | 1008.2 |
| 20260501201050 | 61 | 17 | 1.7 | 5.2 | 0.00 | 0.00 | 0.00 | 37 | 1008.0 |
| 20260501200548 | 62 | 299 | 2.6 | 6.1 | 0.00 | 0.00 | 0.00 | 38 | 1008.1 |
| 20260501200045 | 63 | 9 | 0.0 | 3.5 | 0.00 | 0.00 | 0.00 | 40 | 1007.9 |
| 20260501195543 | 63 | 293 | 1.7 | 3.5 | 0.00 | 0.00 | 0.00 | 34 | 1007.9 |
| 20260501195038 | 63 | 267 | 2.6 | 8.7 | 0.00 | 0.00 | 0.00 | 38 | 1008.1 |
| 20260501194533 | 62 | 268 | 3.5 | 8.7 | 0.00 | 0.00 | 0.00 | 35 | 1008.2 |
| 20260501194030 | 64 | 184 | 2.6 | 2.6 | 0.00 | 0.00 | 0.00 | 34 | 1008.0 |
| 20260501193527 | 63 | 351 | 3.5 | 4.3 | 0.00 | 0.00 | 0.00 | 36 | 1008.0 |
| 20260501193025 | 62 | 202 | 2.6 | 6.1 | 0.00 | 0.00 | 0.00 | 40 | 1008.2 |
| 20260501192522 | 60 | 216 | 3.5 | 9.6 | 0.00 | 0.00 | 0.00 | 36 | 1008.4 |
| 20260501192020 | 62 | 290 | 0.0 | 5.2 | 0.00 | 0.00 | 0.00 | 38 | 1008.3 |
| 20260501191516 | 62 | 267 | 3.5 | 7.0 | 0.00 | 0.00 | 0.00 | 39 | 1008.2 |
| 20260501191014 | 60 | 354 | 2.6 | 4.3 | 0.00 | 0.00 | 0.00 | 44 | 1008.3 |
| 20260501190508 | 61 | 28 | 0.9 | 5.2 | 0.00 | 0.00 | 0.00 | 40 | 1008.4 |
| 20260501190004 | 62 | 275 | 3.5 | 6.1 | 0.00 | 0.00 | 0.00 | 39 | 1008.4 |
| 20260501185500 | 62 | 327 | 7.0 | 11.3 | 0.00 | 0.00 | 0.00 | 40 | 1008.4 |
| 20260501184956 | 61 | 284 | 3.5 | 5.2 | 0.00 | 0.00 | 0.00 | 38 | 1008.4 |
| 20260501184453 | 62 | 269 | 2.6 | 5.2 | 0.00 | 0.00 | 0.00 | 41 | 1008.6 |
| 20260501183948 | 61 | 279 | 0.0 | 5.2 | 0.00 | 0.00 | 0.00 | 35 | 1008.3 |
| 20260501183445 | 61 | 164 | 2.6 | 5.2 | 0.00 | 0.00 | 0.00 | 39 | 1008.7 |
| 20260501182942 | 60 | 329 | 3.5 | 5.2 | 0.00 | 0.00 | 0.00 | 38 | 1008.4 |
| 20260501182439 | 60 | 324 | 1.7 | 6.1 | 0.00 | 0.00 | 0.00 | 36 | 1008.6 |
| 20260501181935 | 61 | 255 | 2.6 | 7.8 | 0.00 | 0.00 | 0.00 | 40 | 1008.8 |
| 20260501181432 | 60 | 122 | 4.3 | 10.4 | 0.00 | 0.00 | 0.00 | 38 | 1008.6 |
| 20260501180929 | 59 | 277 | 2.6 | 7.8 | 0.00 | 0.00 | 0.00 | 40 | 1008.7 |